Time,TemperatureF,DewpointF,PressureIn,WindDirection,WindDirectionDegrees,WindSpeedMPH,WindSpeedGustMPH,Humidity,HourlyPrecipIn,Conditions,Clouds,dailyrainin,SoftwareType,DateUTC
2013-07-01 00:00:00,78.3,76.1,29.89,SSW,194,16.0,17.0,93,0.00,,---,0.40,VWS V14.01,2013-07-01 04:00:00,
2013-07-01 00:01:00,78.3,76.1,29.89,SSW,195,19.0,19.0,93,0.00,,---,0.00,VWS V14.01,2013-07-01 04:01:00,
2013-07-01 00:06:00,78.3,76.1,29.89,SSW,203,14.0,16.0,93,0.00,,---,0.00,VWS V14.01,2013-07-01 04:06:00,
2013-07-01 00:11:00,78.4,76.2,29.89,SSW,194,16.0,18.0,93,0.00,,---,0.00,VWS V14.01,2013-07-01 04:11:00,
2013-07-01 00:16:00,78.3,76.1,29.89,SSW,209,17.0,17.0,93,0.00,,---,0.00,VWS V14.01,2013-07-01 04:16:00,
2013-07-01 00:21:00,78.3,76.1,29.89,SSW,199,17.0,18.0,93,0.00,,---,0.00,VWS V14.01,2013-07-01 04:21:00,
2013-07-01 00:26:00,78.3,76.1,29.88,SSW,194,12.0,18.0,93,0.00,,---,0.00,VWS V14.01,2013-07-01 04:26:00,
2013-07-01 00:31:00,78.3,76.4,29.88,SSW,203,13.0,18.0,94,0.00,,---,0.00,VWS V14.01,2013-07-01 04:31:00,
2013-07-01 00:36:00,78.3,76.4,29.88,South,186,14.0,16.0,94,0.00,,---,0.00,VWS V14.01,2013-07-01 04:36:00,
2013-07-01 00:41:00,78.3,76.4,29.88,South,184,15.0,17.0,94,0.00,,---,0.00,VWS V14.01,2013-07-01 04:41:00,
2013-07-01 00:46:00,78.3,76.4,29.89,South,169,13.0,18.0,94,0.00,,---,0.00,VWS V14.01,2013-07-01 04:46:00,
2013-07-01 00:51:00,78.3,76.4,29.88,SSW,201,14.0,19.0,94,0.00,,---,0.00,VWS V14.01,2013-07-01 04:51:00,
2013-07-01 00:56:00,78.3,76.4,29.88,SSW,200,15.0,15.0,94,0.00,,---,0.00,VWS V14.01,2013-07-01 04:56:00,
2013-07-01 01:01:00,78.3,76.4,29.88,SSW,198,14.0,16.0,94,0.00,,---,0.00,VWS V14.01,2013-07-01 05:01:00,
2013-07-01 01:06:00,78.3,76.4,29.88,SSW,202,17.0,17.0,94,0.00,,---,0.00,VWS V14.01,2013-07-01 05:06:00,
2013-07-01 01:11:00,78.3,76.1,29.89,SSW,198,14.0,19.0,93,0.00,,---,0.00,VWS V14.01,2013-07-01 05:11:00,
2013-07-01 01:16:00,78.3,76.1,29.89,SSW,207,16.0,17.0,93,0.00,,---,0.00,VWS V14.01,2013-07-01 05:16:00,
2013-07-01 01:21:00,78.3,76.1,29.89,SSW,199,14.0,18.0,93,0.00,,---,0.00,VWS V14.01,2013-07-01 05:21:00,
2013-07-01 01:26:00,78.3,76.1,29.89,SSW,197,18.0,19.0,93,0.00,,---,0.00,VWS V14.01,2013-07-01 05:26:00,
2013-07-01 01:31:00,78.3,76.1,29.89,SSW,193,19.0,20.0,93,0.00,,---,0.00,VWS V14.01,2013-07-01 05:31:00,
2013-07-01 01:36:00,78.3,76.1,29.89,SSW,208,14.0,20.0,93,0.00,,---,0.00,VWS V14.01,2013-07-01 05:36:00,
2013-07-01 01:41:00,78.3,76.1,29.89,South,190,18.0,21.0,93,0.00,,---,0.00,VWS V14.01,2013-07-01 05:41:00,
2013-07-01 01:46:00,78.3,76.1,29.89,SSW,194,14.0,18.0,93,0.00,,---,0.00,VWS V14.01,2013-07-01 05:46:00,
2013-07-01 01:51:00,78.3,76.1,29.89,South,180,16.0,18.0,93,0.00,,---,0.00,VWS V14.01,2013-07-01 05:51:00,
2013-07-01 01:56:00,78.3,76.1,29.89,South,175,13.0,20.0,93,0.00,,---,0.00,VWS V14.01,2013-07-01 05:56:00,
2013-07-01 02:01:00,78.3,76.1,29.89,SSW,192,13.0,19.0,93,0.00,,---,0.00,VWS V14.01,2013-07-01 06:01:00,
2013-07-01 02:06:00,78.2,76.0,29.89,SSW,193,17.0,19.0,93,0.00,,---,0.00,VWS V14.01,2013-07-01 06:06:00,
2013-07-01 02:11:00,78.3,76.1,29.89,SSW,195,16.0,20.0,93,0.00,,---,0.00,VWS V14.01,2013-07-01 06:11:00,
2013-07-01 02:16:00,78.3,76.1,29.88,South,184,11.0,18.0,93,0.00,,---,0.00,VWS V14.01,2013-07-01 06:16:00,
2013-07-01 02:21:00,78.2,76.0,29.88,South,189,15.0,15.0,93,0.00,,---,0.00,VWS V14.01,2013-07-01 06:21:00,
2013-07-01 02:26:00,78.2,76.0,29.88,SSW,194,12.0,14.0,93,0.00,,---,0.00,VWS V14.01,2013-07-01 06:26:00,
2013-07-01 02:31:00,78.2,76.0,29.88,SSW,201,6.0,15.0,93,0.00,,---,0.00,VWS V14.01,2013-07-01 06:31:00,
2013-07-01 02:36:00,78.2,76.3,29.88,South,186,12.0,17.0,94,0.00,,---,0.00,VWS V14.01,2013-07-01 06:36:00,
2013-07-01 02:41:00,78.2,76.3,29.87,South,190,13.0,18.0,94,0.00,,---,0.00,VWS V14.01,2013-07-01 06:41:00,
2013-07-01 02:46:00,78.2,76.0,29.87,SSW,202,15.0,18.0,93,0.00,,---,0.00,VWS V14.01,2013-07-01 06:46:00,
2013-07-01 02:51:00,78.2,76.0,29.87,South,190,16.0,18.0,93,0.00,,---,0.00,VWS V14.01,2013-07-01 06:51:00,
2013-07-01 02:56:00,78.2,76.0,29.87,SSW,198,17.0,20.0,93,0.00,,---,0.00,VWS V14.01,2013-07-01 06:56:00,
2013-07-01 03:01:00,78.2,76.0,29.87,SSW,205,22.0,25.0,93,0.00,,---,0.00,VWS V14.01,2013-07-01 07:01:00,
2013-07-01 03:06:00,77.9,75.4,29.87,SW,214,19.0,24.0,92,0.00,,---,0.00,VWS V14.01,2013-07-01 07:06:00,
2013-07-01 03:11:00,77.8,75.3,29.87,SSW,201,18.0,19.0,92,0.00,,---,0.00,VWS V14.01,2013-07-01 07:11:00,
2013-07-01 03:16:00,77.9,75.7,29.87,SSW,205,16.0,20.0,93,0.00,,---,0.00,VWS V14.01,2013-07-01 07:16:00,
2013-07-01 03:21:00,77.9,75.7,29.87,SSW,203,13.0,15.0,93,0.00,,---,0.00,VWS V14.01,2013-07-01 07:21:00,
2013-07-01 03:26:00,77.6,75.4,29.87,SSW,192,16.0,20.0,93,0.00,,---,0.00,VWS V14.01,2013-07-01 07:26:00,
2013-07-01 03:31:00,77.2,74.0,29.87,SSW,205,20.0,26.0,90,0.00,,---,0.00,VWS V14.01,2013-07-01 07:31:00,
2013-07-01 03:36:00,77.4,73.9,29.87,South,188,25.0,26.0,89,0.00,,---,0.00,VWS V14.01,2013-07-01 07:36:00,
2013-07-01 03:41:00,77.6,74.1,29.87,SSW,192,21.0,22.0,89,0.00,,---,0.00,VWS V14.01,2013-07-01 07:41:00,
2013-07-01 03:46:00,77.1,73.9,29.87,South,189,15.0,20.0,90,0.00,,---,0.00,VWS V14.01,2013-07-01 07:46:00,
2013-07-01 03:51:00,76.9,73.8,29.87,SSW,201,21.0,22.0,90,0.00,,---,0.00,VWS V14.01,2013-07-01 07:51:00,
2013-07-01 03:56:00,77.1,73.9,29.87,SSW,201,17.0,22.0,90,0.00,,---,0.00,VWS V14.01,2013-07-01 07:56:00,
2013-07-01 04:01:00,77.3,74.1,29.87,SSW,193,22.0,22.0,90,0.00,,---,0.00,VWS V14.01,2013-07-01 08:01:00,
2013-07-01 04:06:00,77.4,73.9,29.87,SSW,202,17.0,24.0,89,0.00,,---,0.00,VWS V14.01,2013-07-01 08:06:00,
2013-07-01 04:11:00,77.6,74.1,29.87,SSW,200,22.0,22.0,89,0.00,,---,0.00,VWS V14.01,2013-07-01 08:11:00,
2013-07-01 04:16:00,77.6,74.4,29.88,SSW,201,21.0,21.0,90,0.00,,---,0.00,VWS V14.01,2013-07-01 08:16:00,
2013-07-01 04:21:00,77.6,74.4,29.88,SSW,205,16.0,21.0,90,0.00,,---,0.00,VWS V14.01,2013-07-01 08:21:00,
2013-07-01 04:26:00,77.6,74.4,29.88,SSW,211,18.0,21.0,90,0.00,,---,0.00,VWS V14.01,2013-07-01 08:26:00,
2013-07-01 04:31:00,77.6,74.4,29.88,SW,215,18.0,21.0,90,0.00,,---,0.00,VWS V14.01,2013-07-01 08:31:00,
2013-07-01 04:36:00,77.7,74.9,29.88,SSW,213,17.0,19.0,91,0.00,,---,0.00,VWS V14.01,2013-07-01 08:36:00,
2013-07-01 04:41:00,77.7,74.9,29.88,SSW,209,18.0,20.0,91,0.00,,---,0.00,VWS V14.01,2013-07-01 08:41:00,
2013-07-01 04:46:00,77.7,74.9,29.88,SSW,202,15.0,17.0,91,0.00,,---,0.00,VWS V14.01,2013-07-01 08:46:00,
2013-07-01 04:51:00,77.7,74.9,29.88,SSW,212,17.0,21.0,91,0.00,,---,0.00,VWS V14.01,2013-07-01 08:51:00,
2013-07-01 04:56:00,77.7,74.9,29.89,SSW,208,16.0,16.0,91,0.00,,---,0.00,VWS V14.01,2013-07-01 08:56:00,
2013-07-01 05:01:00,77.7,74.9,29.89,SSW,208,13.0,18.0,91,0.00,,---,0.00,VWS V14.01,2013-07-01 09:01:00,
2013-07-01 05:06:00,77.6,74.8,29.89,SSW,209,17.0,19.0,91,0.00,,---,0.00,VWS V14.01,2013-07-01 09:06:00,
2013-07-01 05:11:00,77.7,74.9,29.89,SSW,211,17.0,17.0,91,0.00,,---,0.00,VWS V14.01,2013-07-01 09:11:00,
2013-07-01 05:16:00,77.7,74.9,29.90,SSW,207,16.0,17.0,91,0.00,,---,0.00,VWS V14.01,2013-07-01 09:16:00,
2013-07-01 05:21:00,77.8,75.0,29.90,SSW,204,15.0,17.0,91,0.00,,---,0.00,VWS V14.01,2013-07-01 09:21:00,
2013-07-01 05:26:00,77.8,75.0,29.90,SSW,202,15.0,17.0,91,0.00,,---,0.00,VWS V14.01,2013-07-01 09:26:00,
2013-07-01 05:31:00,77.8,75.0,29.91,SSW,200,17.0,17.0,91,0.00,,---,0.00,VWS V14.01,2013-07-01 09:31:00,
2013-07-01 05:36:00,77.8,75.0,29.91,SSW,206,17.0,19.0,91,0.00,,---,0.00,VWS V14.01,2013-07-01 09:36:00,
2013-07-01 05:41:00,77.8,75.3,29.91,SSW,197,17.0,17.0,92,0.00,,---,0.00,VWS V14.01,2013-07-01 09:41:00,
2013-07-01 05:46:00,77.8,75.3,29.91,SSW,204,15.0,17.0,92,0.00,,---,0.00,VWS V14.01,2013-07-01 09:46:00,
2013-07-01 05:51:00,77.8,75.3,29.91,SSW,194,17.0,17.0,92,0.00,,---,0.00,VWS V14.01,2013-07-01 09:51:00,
2013-07-01 05:56:00,77.9,75.4,29.92,South,185,17.0,17.0,92,0.00,,---,0.00,VWS V14.01,2013-07-01 09:56:00,
2013-07-01 06:01:00,77.9,75.4,29.92,SSW,204,15.0,15.0,92,0.00,,---,0.00,VWS V14.01,2013-07-01 10:01:00,
2013-07-01 06:06:00,77.8,75.3,29.92,SSW,194,14.0,17.0,92,0.00,,---,0.00,VWS V14.01,2013-07-01 10:06:00,
2013-07-01 06:11:00,77.9,75.4,29.92,SSW,208,13.0,15.0,92,0.00,,---,0.00,VWS V14.01,2013-07-01 10:11:00,
2013-07-01 06:16:00,77.9,75.4,29.92,SSW,196,16.0,16.0,92,0.00,,---,0.00,VWS V14.01,2013-07-01 10:16:00,
2013-07-01 06:21:00,77.9,75.4,29.92,SSW,198,13.0,17.0,92,0.00,,---,0.00,VWS V14.01,2013-07-01 10:21:00,
2013-07-01 06:26:00,77.9,75.4,29.92,South,188,13.0,17.0,92,0.00,,---,0.00,VWS V14.01,2013-07-01 10:26:00,
2013-07-01 06:31:00,77.9,75.4,29.92,SSW,196,14.0,16.0,92,0.00,,---,0.00,VWS V14.01,2013-07-01 10:31:00,
2013-07-01 06:36:00,77.9,75.4,29.92,South,184,13.0,17.0,92,0.00,,---,0.00,VWS V14.01,2013-07-01 10:36:00,
2013-07-01 06:41:00,77.9,75.4,29.92,SSW,201,13.0,16.0,92,0.00,,---,0.00,VWS V14.01,2013-07-01 10:41:00,
2013-07-01 06:46:00,77.7,75.2,29.93,South,186,13.0,15.0,92,0.00,,---,0.00,VWS V14.01,2013-07-01 10:46:00,
2013-07-01 06:51:00,77.7,75.2,29.93,SSW,198,9.0,16.0,92,0.00,,---,0.00,VWS V14.01,2013-07-01 10:51:00,
2013-07-01 06:56:00,77.8,75.3,29.93,South,190,15.0,16.0,92,0.00,,---,0.00,VWS V14.01,2013-07-01 10:56:00,
2013-07-01 07:01:00,77.8,75.3,29.93,South,187,14.0,16.0,92,0.00,,---,0.00,VWS V14.01,2013-07-01 11:01:00,
2013-07-01 07:06:00,77.8,75.3,29.93,SSW,197,7.0,15.0,92,0.00,,---,0.00,VWS V14.01,2013-07-01 11:06:00,
2013-07-01 07:11:00,77.8,75.6,29.93,SSW,196,8.0,17.0,93,0.00,,---,0.00,VWS V14.01,2013-07-01 11:11:00,
2013-07-01 07:16:00,77.8,75.6,29.94,South,188,14.0,16.0,93,0.00,,---,0.00,VWS V14.01,2013-07-01 11:16:00,
2013-07-01 07:21:00,77.8,75.6,29.94,SSW,193,16.0,17.0,93,0.00,,---,0.00,VWS V14.01,2013-07-01 11:21:00,
2013-07-01 07:26:00,77.8,75.6,29.94,SSW,194,17.0,18.0,93,0.00,,---,0.00,VWS V14.01,2013-07-01 11:26:00,
2013-07-01 07:31:00,77.9,75.7,29.94,South,188,14.0,15.0,93,0.00,,---,0.00,VWS V14.01,2013-07-01 11:31:00,
2013-07-01 07:36:00,77.9,75.7,29.94,South,189,16.0,18.0,93,0.00,,---,0.00,VWS V14.01,2013-07-01 11:36:00,
2013-07-01 07:41:00,78.0,75.8,29.94,South,182,16.0,17.0,93,0.00,,---,0.00,VWS V14.01,2013-07-01 11:41:00,
2013-07-01 07:46:00,78.0,75.8,29.94,SSE,162,15.0,17.0,93,0.00,,---,0.00,VWS V14.01,2013-07-01 11:46:00,
2013-07-01 07:51:00,78.0,75.5,29.94,SSW,193,18.0,18.0,92,0.00,,---,0.00,VWS V14.01,2013-07-01 11:51:00,
2013-07-01 07:56:00,78.1,75.6,29.94,SSW,204,14.0,14.0,92,0.00,,---,0.00,VWS V14.01,2013-07-01 11:56:00,
2013-07-01 08:01:00,78.1,75.6,29.94,SSW,200,14.0,15.0,92,0.00,,---,0.00,VWS V14.01,2013-07-01 12:01:00,
2013-07-01 08:06:00,78.1,75.6,29.94,SSW,208,15.0,16.0,92,0.00,,---,0.00,VWS V14.01,2013-07-01 12:06:00,
2013-07-01 08:11:00,78.1,75.6,29.94,SSW,200,15.0,15.0,92,0.00,,---,0.00,VWS V14.01,2013-07-01 12:11:00,
2013-07-01 08:16:00,78.1,75.6,29.94,SSW,204,12.0,16.0,92,0.00,,---,0.00,VWS V14.01,2013-07-01 12:16:00,
2013-07-01 08:17:00,78.1,75.6,29.94,SSW,203,13.0,16.0,92,0.00,,---,0.00,VWS V14.01,2013-07-01 12:17:00,
2013-07-01 08:22:00,78.1,75.6,29.94,SSW,204,15.0,17.0,92,0.00,,---,0.00,VWS V14.01,2013-07-01 12:22:00,
2013-07-01 08:27:00,78.1,75.6,29.94,SSW,199,17.0,17.0,92,0.00,,---,0.00,VWS V14.01,2013-07-01 12:27:00,
2013-07-01 08:32:00,77.7,74.9,29.94,SSW,204,17.0,21.0,91,0.00,,---,0.00,VWS V14.01,2013-07-01 12:32:00,
2013-07-01 08:37:00,77.1,74.3,29.94,SSW,210,19.0,21.0,91,0.00,,---,0.00,VWS V14.01,2013-07-01 12:37:00,
2013-07-01 08:41:00,77.1,74.6,29.94,SSW,196,18.0,21.0,92,0.00,,---,0.00,VWS V14.01,2013-07-01 12:41:00,
2013-07-01 08:46:00,76.9,74.1,29.94,SSW,206,16.0,20.0,91,0.00,,---,0.00,VWS V14.01,2013-07-01 12:46:00,
2013-07-01 08:51:00,77.1,74.6,29.94,South,190,16.0,21.0,92,0.00,,---,0.00,VWS V14.01,2013-07-01 12:51:00,
2013-07-01 08:56:00,77.2,74.7,29.94,South,191,16.0,19.0,92,0.00,,---,0.00,VWS V14.01,2013-07-01 12:56:00,
2013-07-01 09:01:00,77.3,74.8,29.95,SSW,196,19.0,19.0,92,0.00,,---,0.00,VWS V14.01,2013-07-01 13:01:00,
2013-07-01 09:06:00,77.4,74.9,29.95,SSW,200,14.0,18.0,92,0.00,,---,0.00,VWS V14.01,2013-07-01 13:06:00,
2013-07-01 09:11:00,77.5,74.7,29.96,SW,221,17.0,18.0,91,0.00,,---,0.00,VWS V14.01,2013-07-01 13:11:00,
2013-07-01 09:16:00,76.3,73.2,29.96,WSW,243,11.0,13.0,90,0.00,,---,0.00,VWS V14.01,2013-07-01 13:16:00,
2013-07-01 09:21:00,75.9,73.1,29.96,WSW,249,12.0,12.0,91,0.00,,---,0.00,VWS V14.01,2013-07-01 13:21:00,
2013-07-01 09:26:00,75.9,73.1,29.96,West,259,12.0,13.0,91,0.00,,---,0.00,VWS V14.01,2013-07-01 13:26:00,
2013-07-01 09:31:00,76.1,73.6,29.95,WSW,245,8.0,14.0,92,0.00,,---,0.00,VWS V14.01,2013-07-01 13:31:00,
2013-07-01 09:36:00,76.1,73.3,29.96,WSW,252,10.0,16.0,91,0.00,,---,0.00,VWS V14.01,2013-07-01 13:36:00,
2013-07-01 09:41:00,76.3,73.5,29.96,WSW,240,14.0,14.0,91,0.00,,---,0.00,VWS V14.01,2013-07-01 13:41:00,
2013-07-01 09:46:00,74.8,71.7,29.97,WSW,250,21.0,29.0,90,0.05,,---,0.05,VWS V14.01,2013-07-01 13:46:00,
2013-07-01 09:51:00,73.5,71.0,29.97,SW,232,9.0,11.0,92,0.10,,---,0.10,VWS V14.01,2013-07-01 13:51:00,
2013-07-01 09:56:00,73.3,71.5,29.97,WSW,242,10.0,12.0,94,0.11,,---,0.11,VWS V14.01,2013-07-01 13:56:00,
2013-07-01 10:01:00,74.0,72.2,29.97,SW,232,9.0,13.0,94,0.12,,---,0.12,VWS V14.01,2013-07-01 14:01:00,
2013-07-01 10:06:00,74.0,72.2,29.97,WSW,244,13.0,13.0,94,0.12,,---,0.12,VWS V14.01,2013-07-01 14:06:00,
2013-07-01 10:07:00,74.0,72.2,29.97,WSW,244,10.0,13.0,94,0.12,,---,0.12,VWS V14.01,2013-07-01 14:07:00,
2013-07-01 10:12:00,74.0,72.2,29.97,SW,226,13.0,13.0,94,0.12,,---,0.12,VWS V14.01,2013-07-01 14:12:00,
2013-07-01 10:17:00,73.9,72.1,29.97,SW,216,11.0,13.0,94,0.12,,---,0.12,VWS V14.01,2013-07-01 14:17:00,
2013-07-01 10:22:00,73.9,72.1,29.97,SW,224,10.0,12.0,94,0.12,,---,0.12,VWS V14.01,2013-07-01 14:22:00,
2013-07-01 10:27:00,73.8,72.0,29.97,SW,236,8.0,9.0,94,0.12,,---,0.12,VWS V14.01,2013-07-01 14:27:00,
2013-07-01 10:32:00,73.9,71.8,29.96,WSW,239,7.0,7.0,93,0.12,,---,0.12,VWS V14.01,2013-07-01 14:32:00,
2013-07-01 10:37:00,74.4,72.2,29.96,SW,232,4.0,6.0,93,0.12,,---,0.12,VWS V14.01,2013-07-01 14:37:00,
2013-07-01 10:42:00,74.6,72.4,29.97,WSW,248,17.0,18.0,93,0.12,,---,0.12,VWS V14.01,2013-07-01 14:42:00,
2013-07-01 10:47:00,74.9,72.7,29.97,WSW,248,17.0,17.0,93,0.13,,---,0.16,VWS V14.01,2013-07-01 14:47:00,
2013-07-01 10:52:00,74.4,72.2,29.97,WSW,244,14.0,15.0,93,0.07,,---,0.16,VWS V14.01,2013-07-01 14:52:00,
2013-07-01 10:57:00,74.8,73.0,29.97,SW,227,19.0,20.0,94,0.06,,---,0.17,VWS V14.01,2013-07-01 14:57:00,
2013-07-01 11:02:00,74.6,72.4,29.97,SW,221,17.0,17.0,93,0.06,,---,0.18,VWS V14.01,2013-07-01 15:02:00,
2013-07-01 11:07:00,73.9,71.4,29.97,SW,229,16.0,16.0,92,0.06,,---,0.18,VWS V14.01,2013-07-01 15:07:00,
2013-07-01 11:12:00,74.2,71.7,29.97,SW,229,15.0,18.0,92,0.06,,---,0.18,VWS V14.01,2013-07-01 15:12:00,
2013-07-01 11:17:00,74.8,72.3,29.97,SW,223,19.0,22.0,92,0.06,,---,0.18,VWS V14.01,2013-07-01 15:17:00,
2013-07-01 11:22:00,74.8,72.3,29.97,SW,223,18.0,20.0,92,0.06,,---,0.18,VWS V14.01,2013-07-01 15:22:00,
2013-07-01 11:27:00,74.9,72.7,29.97,SW,223,21.0,21.0,93,0.06,,---,0.18,VWS V14.01,2013-07-01 15:27:00,
2013-07-01 11:32:00,75.3,72.8,29.97,SW,229,18.0,20.0,92,0.06,,---,0.18,VWS V14.01,2013-07-01 15:32:00,
2013-07-01 11:37:00,75.3,72.8,29.97,SSW,209,15.0,18.0,92,0.06,,---,0.18,VWS V14.01,2013-07-01 15:37:00,
2013-07-01 11:42:00,75.5,73.3,29.97,SSW,205,17.0,17.0,93,0.06,,---,0.18,VWS V14.01,2013-07-01 15:42:00,
2013-07-01 11:47:00,75.6,73.1,29.97,South,178,14.0,17.0,92,0.02,,---,0.18,VWS V14.01,2013-07-01 15:47:00,
2013-07-01 11:52:00,75.6,73.4,29.97,SSW,194,11.0,16.0,93,0.03,,---,0.19,VWS V14.01,2013-07-01 15:52:00,
2013-07-01 11:57:00,75.4,72.9,29.97,SSW,194,15.0,18.0,92,0.03,,---,0.20,VWS V14.01,2013-07-01 15:57:00,
2013-07-01 12:02:00,75.5,73.0,29.96,SSW,197,10.0,15.0,92,0.02,,---,0.20,VWS V14.01,2013-07-01 16:02:00,
2013-07-01 12:07:00,75.5,73.0,29.96,SSW,199,10.0,14.0,92,0.02,,---,0.20,VWS V14.01,2013-07-01 16:07:00,
2013-07-01 12:12:00,75.8,73.3,29.96,SSW,197,12.0,12.0,92,0.02,,---,0.20,VWS V14.01,2013-07-01 16:12:00,
2013-07-01 12:17:00,76.1,73.6,29.96,South,177,4.0,11.0,92,0.02,,---,0.20,VWS V14.01,2013-07-01 16:17:00,
2013-07-01 12:22:00,75.9,73.1,29.96,South,181,14.0,14.0,91,0.02,,---,0.20,VWS V14.01,2013-07-01 16:22:00,
2013-07-01 12:27:00,76.1,73.3,29.97,SSW,194,14.0,15.0,91,0.02,,---,0.20,VWS V14.01,2013-07-01 16:27:00,
2013-07-01 12:32:00,76.5,74.0,29.97,SSW,206,16.0,17.0,92,0.02,,---,0.20,VWS V14.01,2013-07-01 16:32:00,
2013-07-01 12:37:00,76.4,73.6,29.97,SSW,208,18.0,21.0,91,0.02,,---,0.20,VWS V14.01,2013-07-01 16:37:00,
2013-07-01 12:42:00,76.3,73.8,29.97,SSW,204,15.0,18.0,92,0.02,,---,0.20,VWS V14.01,2013-07-01 16:42:00,
2013-07-01 12:47:00,76.3,73.8,29.97,SSW,207,14.0,17.0,92,0.02,,---,0.20,VWS V14.01,2013-07-01 16:47:00,
2013-07-01 12:52:00,76.2,73.7,29.98,SSW,195,18.0,19.0,92,0.02,,---,0.20,VWS V14.01,2013-07-01 16:52:00,
2013-07-01 12:57:00,76.0,73.5,29.98,SSW,198,16.0,20.0,92,0.00,,---,0.20,VWS V14.01,2013-07-01 16:57:00,
2013-07-01 13:02:00,75.8,73.3,29.98,SSW,202,19.0,20.0,92,0.00,,---,0.20,VWS V14.01,2013-07-01 17:02:00,
2013-07-01 13:07:00,75.9,73.1,29.98,SSW,212,19.0,21.0,91,0.00,,---,0.20,VWS V14.01,2013-07-01 17:07:00,
2013-07-01 13:12:00,75.9,73.1,29.98,SSW,206,18.0,20.0,91,0.00,,---,0.20,VWS V14.01,2013-07-01 17:12:00,
2013-07-01 13:17:00,75.9,73.1,29.98,SSW,201,17.0,19.0,91,0.00,,---,0.20,VWS V14.01,2013-07-01 17:17:00,
2013-07-01 13:22:00,76.2,73.4,29.98,South,183,15.0,18.0,91,0.00,,---,0.20,VWS V14.01,2013-07-01 17:22:00,
2013-07-01 13:27:00,76.2,73.4,29.98,SSW,199,17.0,20.0,91,0.00,,---,0.20,VWS V14.01,2013-07-01 17:27:00,
2013-07-01 13:32:00,76.3,73.5,29.98,South,183,16.0,19.0,91,0.00,,---,0.20,VWS V14.01,2013-07-01 17:32:00,
2013-07-01 13:37:00,76.3,73.5,29.98,South,175,20.0,21.0,91,0.00,,---,0.20,VWS V14.01,2013-07-01 17:37:00,
2013-07-01 13:42:00,76.2,73.4,29.98,SSW,194,21.0,23.0,91,0.00,,---,0.20,VWS V14.01,2013-07-01 17:42:00,
2013-07-01 13:47:00,76.4,73.6,29.98,South,188,16.0,21.0,91,0.00,,---,0.20,VWS V14.01,2013-07-01 17:47:00,
2013-07-01 13:52:00,76.6,73.8,29.98,South,186,17.0,19.0,91,0.00,,---,0.20,VWS V14.01,2013-07-01 17:52:00,
2013-07-01 13:57:00,76.5,74.0,29.98,South,191,22.0,22.0,92,0.01,,---,0.21,VWS V14.01,2013-07-01 17:57:00,
2013-07-01 14:02:00,76.6,74.1,29.98,South,191,20.0,20.0,92,0.01,,---,0.21,VWS V14.01,2013-07-01 18:02:00,
2013-07-01 14:07:00,76.6,74.1,29.98,SSW,207,18.0,21.0,92,0.01,,---,0.21,VWS V14.01,2013-07-01 18:07:00,
2013-07-01 14:12:00,76.5,74.0,29.99,South,178,22.0,25.0,92,0.01,,---,0.21,VWS V14.01,2013-07-01 18:12:00,
2013-07-01 14:17:00,76.5,74.3,29.99,South,189,15.0,22.0,93,0.01,,---,0.21,VWS V14.01,2013-07-01 18:17:00,
2013-07-01 14:22:00,76.6,74.4,29.99,SSW,194,19.0,21.0,93,0.01,,---,0.21,VWS V14.01,2013-07-01 18:22:00,
2013-07-01 14:27:00,76.6,74.4,29.99,South,181,18.0,22.0,93,0.01,,---,0.21,VWS V14.01,2013-07-01 18:27:00,
2013-07-01 14:32:00,76.5,74.3,29.98,SSW,193,18.0,27.0,93,0.01,,---,0.21,VWS V14.01,2013-07-01 18:32:00,
2013-07-01 14:37:00,76.5,74.3,29.98,SSW,194,18.0,22.0,93,0.01,,---,0.21,VWS V14.01,2013-07-01 18:37:00,
2013-07-01 14:42:00,76.6,74.1,29.98,SSW,196,23.0,24.0,92,0.01,,---,0.21,VWS V14.01,2013-07-01 18:42:00,
2013-07-01 14:47:00,76.6,74.4,29.98,South,173,18.0,22.0,93,0.01,,---,0.21,VWS V14.01,2013-07-01 18:47:00,
2013-07-01 14:52:00,76.5,74.3,29.98,South,189,10.0,21.0,93,0.01,,---,0.21,VWS V14.01,2013-07-01 18:52:00,
2013-07-01 14:57:00,76.2,73.4,29.98,South,189,24.0,24.0,91,0.00,,---,0.21,VWS V14.01,2013-07-01 18:57:00,
2013-07-01 15:01:00,76.2,73.4,29.98,South,189,18.0,26.0,91,0.00,,---,0.21,VWS V14.01,2013-07-01 19:01:00,
2013-07-01 15:06:00,76.4,73.9,29.98,SSW,197,18.0,23.0,92,0.01,,---,0.22,VWS V14.01,2013-07-01 19:06:00,
2013-07-01 15:11:00,76.4,73.9,29.98,SSW,192,23.0,23.0,92,0.01,,---,0.22,VWS V14.01,2013-07-01 19:11:00,
2013-07-01 15:16:00,76.1,73.9,29.98,South,184,21.0,23.0,93,0.01,,---,0.22,VWS V14.01,2013-07-01 19:16:00,
2013-07-01 15:21:00,76.1,73.9,29.98,SSW,196,24.0,24.0,93,0.01,,---,0.22,VWS V14.01,2013-07-01 19:21:00,
2013-07-01 15:26:00,75.9,74.1,29.98,SSW,206,24.0,24.0,94,0.02,,---,0.23,VWS V14.01,2013-07-01 19:26:00,
2013-07-01 15:31:00,75.7,73.8,29.98,SSW,202,19.0,23.0,94,0.07,,---,0.28,VWS V14.01,2013-07-01 19:31:00,
2013-07-01 15:36:00,75.7,73.8,29.98,South,189,21.0,21.0,94,0.09,,---,0.30,VWS V14.01,2013-07-01 19:36:00,
2013-07-01 15:41:00,75.7,74.2,29.98,SSW,201,17.0,21.0,95,0.09,,---,0.30,VWS V14.01,2013-07-01 19:41:00,
2013-07-01 15:46:00,75.7,73.8,29.98,SSW,211,21.0,22.0,94,0.09,,---,0.30,VWS V14.01,2013-07-01 19:46:00,
2013-07-01 15:51:00,75.2,73.0,29.98,SW,226,22.0,22.0,93,0.09,,---,0.30,VWS V14.01,2013-07-01 19:51:00,
2013-07-01 15:56:00,75.3,73.5,29.98,SW,225,16.0,22.0,94,0.09,,---,0.30,VWS V14.01,2013-07-01 19:56:00,
2013-07-01 16:01:00,75.6,73.8,29.98,SSW,213,17.0,18.0,94,0.09,,---,0.30,VWS V14.01,2013-07-01 20:01:00,
2013-07-01 16:06:00,75.6,73.8,29.98,SW,226,21.0,21.0,94,0.10,,---,0.31,VWS V14.01,2013-07-01 20:06:00,
2013-07-01 16:11:00,75.5,73.7,29.99,SW,232,17.0,19.0,94,0.09,,---,0.31,VWS V14.01,2013-07-01 20:11:00,
2013-07-01 16:12:00,75.5,73.7,29.99,SW,232,17.0,19.0,94,0.09,,---,0.31,VWS V14.01,2013-07-01 20:12:00,
2013-07-01 16:17:00,75.5,73.3,29.99,SW,219,20.0,22.0,93,0.09,,---,0.31,VWS V14.01,2013-07-01 20:17:00,
2013-07-01 16:22:00,75.3,72.8,29.99,SW,232,17.0,24.0,92,0.09,,---,0.31,VWS V14.01,2013-07-01 20:22:00,
2013-07-01 16:27:00,75.5,73.0,29.99,SW,225,19.0,20.0,92,0.09,,---,0.31,VWS V14.01,2013-07-01 20:27:00,
2013-07-01 16:32:00,75.5,73.0,29.99,SW,227,22.0,22.0,92,0.05,,---,0.31,VWS V14.01,2013-07-01 20:32:00,
2013-07-01 16:37:00,75.7,73.2,30.00,SW,221,19.0,21.0,92,0.01,,---,0.31,VWS V14.01,2013-07-01 20:37:00,
2013-07-01 16:42:00,75.9,73.4,30.00,SW,217,18.0,20.0,92,0.01,,---,0.31,VWS V14.01,2013-07-01 20:42:00,
2013-07-01 16:47:00,75.8,73.3,29.99,SSW,212,20.0,22.0,92,0.01,,---,0.31,VWS V14.01,2013-07-01 20:47:00,
2013-07-01 16:52:00,75.8,73.3,30.00,SW,225,22.0,23.0,92,0.01,,---,0.31,VWS V14.01,2013-07-01 20:52:00,
2013-07-01 16:57:00,75.8,73.3,29.99,SW,227,23.0,23.0,92,0.01,,---,0.31,VWS V14.01,2013-07-01 20:57:00,
2013-07-01 17:02:00,75.7,73.2,29.99,SW,223,21.0,22.0,92,0.01,,---,0.31,VWS V14.01,2013-07-01 21:02:00,
2013-07-01 17:07:00,75.8,73.3,29.99,SW,231,14.0,20.0,92,0.01,,---,0.31,VWS V14.01,2013-07-01 21:07:00,
2013-07-01 17:12:00,75.9,73.4,29.99,WSW,246,14.0,19.0,92,0.00,,---,0.31,VWS V14.01,2013-07-01 21:12:00,
2013-07-01 17:17:00,75.7,73.2,29.98,SW,227,18.0,18.0,92,0.00,,---,0.31,VWS V14.01,2013-07-01 21:17:00,
2013-07-01 17:22:00,75.5,72.7,29.98,SW,230,14.0,14.0,91,0.00,,---,0.31,VWS V14.01,2013-07-01 21:22:00,
2013-07-01 17:27:00,75.6,72.1,29.98,SW,233,10.0,14.0,89,0.00,,---,0.31,VWS V14.01,2013-07-01 21:27:00,
2013-07-01 17:32:00,75.9,72.4,29.98,SW,230,13.0,14.0,89,0.00,,---,0.31,VWS V14.01,2013-07-01 21:32:00,
2013-07-01 17:37:00,76.1,72.3,29.98,SW,221,14.0,15.0,88,0.00,,---,0.31,VWS V14.01,2013-07-01 21:37:00,
2013-07-01 17:42:00,76.4,72.6,29.98,SW,226,13.0,13.0,88,0.00,,---,0.31,VWS V14.01,2013-07-01 21:42:00,
2013-07-01 17:47:00,76.5,72.3,29.98,SW,217,13.0,15.0,87,0.00,,---,0.31,VWS V14.01,2013-07-01 21:47:00,
2013-07-01 17:52:00,76.7,72.2,29.98,SW,223,15.0,17.0,86,0.00,,---,0.31,VWS V14.01,2013-07-01 21:52:00,
2013-07-01 17:57:00,76.8,72.6,29.98,SW,218,13.0,16.0,87,0.00,,---,0.31,VWS V14.01,2013-07-01 21:57:00,
2013-07-01 18:02:00,76.8,72.6,29.98,SW,219,17.0,18.0,87,0.00,,---,0.31,VWS V14.01,2013-07-01 22:02:00,
2013-07-01 18:07:00,77.0,73.2,29.98,SSW,213,18.0,18.0,88,0.00,,---,0.31,VWS V14.01,2013-07-01 22:07:00,
2013-07-01 18:12:00,76.8,73.3,29.98,SW,221,18.0,19.0,89,0.00,,---,0.31,VWS V14.01,2013-07-01 22:12:00,
2013-07-01 18:17:00,76.8,73.3,29.98,SW,222,14.0,17.0,89,0.00,,---,0.31,VWS V14.01,2013-07-01 22:17:00,
2013-07-01 18:22:00,76.6,73.1,29.99,SW,214,16.0,17.0,89,0.00,,---,0.31,VWS V14.01,2013-07-01 22:22:00,
2013-07-01 18:27:00,76.7,73.6,29.99,SSW,211,15.0,16.0,90,0.00,,---,0.31,VWS V14.01,2013-07-01 22:27:00,
2013-07-01 18:32:00,76.8,73.7,29.99,SSW,206,13.0,16.0,90,0.00,,---,0.31,VWS V14.01,2013-07-01 22:32:00,
2013-07-01 18:37:00,76.8,74.0,29.99,SSW,211,15.0,17.0,91,0.00,,---,0.31,VWS V14.01,2013-07-01 22:37:00,
2013-07-01 18:42:00,76.8,74.0,30.00,SSW,210,14.0,16.0,91,0.00,,---,0.31,VWS V14.01,2013-07-01 22:42:00,
2013-07-01 18:47:00,76.8,74.0,30.00,SSW,209,16.0,16.0,91,0.00,,---,0.31,VWS V14.01,2013-07-01 22:47:00,
2013-07-01 18:52:00,76.7,74.2,30.00,SSW,213,16.0,17.0,92,0.00,,---,0.31,VWS V14.01,2013-07-01 22:52:00,
2013-07-01 18:57:00,76.8,74.0,30.00,SSW,211,18.0,18.0,91,0.00,,---,0.31,VWS V14.01,2013-07-01 22:57:00,
2013-07-01 19:02:00,76.9,74.1,30.00,SW,221,17.0,18.0,91,0.00,,---,0.31,VWS V14.01,2013-07-01 23:02:00,
2013-07-01 19:07:00,77.1,74.3,30.00,SSW,210,15.0,19.0,91,0.00,,---,0.31,VWS V14.01,2013-07-01 23:07:00,
2013-07-01 19:12:00,77.1,74.3,30.01,SW,217,18.0,19.0,91,0.00,,---,0.31,VWS V14.01,2013-07-01 23:12:00,
2013-07-01 19:17:00,77.1,74.6,30.01,SSW,209,15.0,17.0,92,0.00,,---,0.31,VWS V14.01,2013-07-01 23:17:00,
2013-07-01 19:22:00,77.1,74.6,30.01,SSW,205,16.0,17.0,92,0.00,,---,0.31,VWS V14.01,2013-07-01 23:22:00,
2013-07-01 19:27:00,77.2,74.7,30.01,SSW,200,14.0,17.0,92,0.00,,---,0.31,VWS V14.01,2013-07-01 23:27:00,
2013-07-01 19:32:00,77.2,74.7,30.01,SSW,205,17.0,18.0,92,0.00,,---,0.31,VWS V14.01,2013-07-01 23:32:00,
2013-07-01 19:37:00,77.2,74.7,30.01,SSW,201,17.0,17.0,92,0.00,,---,0.31,VWS V14.01,2013-07-01 23:37:00,
2013-07-01 19:42:00,77.1,74.6,30.01,SSW,208,16.0,19.0,92,0.00,,---,0.31,VWS V14.01,2013-07-01 23:42:00,
2013-07-01 19:47:00,77.0,74.5,30.01,SSW,213,15.0,17.0,92,0.00,,---,0.31,VWS V14.01,2013-07-01 23:47:00,
2013-07-01 19:52:00,76.9,74.4,30.01,SSW,207,18.0,19.0,92,0.00,,---,0.31,VWS V14.01,2013-07-01 23:52:00,
2013-07-01 19:57:00,77.0,74.5,30.02,SW,215,17.0,20.0,92,0.00,,---,0.31,VWS V14.01,2013-07-01 23:57:00,
2013-07-01 20:02:00,77.1,74.6,30.01,SW,218,15.0,18.0,92,0.00,,---,0.31,VWS V14.01,2013-07-02 00:02:00,
2013-07-01 20:07:00,77.0,74.8,30.01,SW,216,20.0,21.0,93,0.00,,---,0.31,VWS V14.01,2013-07-02 00:07:00,
2013-07-01 20:12:00,77.0,74.8,30.01,SSW,212,18.0,19.0,93,0.00,,---,0.31,VWS V14.01,2013-07-02 00:12:00,
2013-07-01 20:17:00,77.0,74.8,30.01,SSW,209,14.0,18.0,93,0.00,,---,0.31,VWS V14.01,2013-07-02 00:17:00,
2013-07-01 20:22:00,77.0,74.8,30.01,SSW,211,17.0,18.0,93,0.00,,---,0.31,VWS V14.01,2013-07-02 00:22:00,
2013-07-01 20:27:00,76.9,74.7,30.01,SSW,209,15.0,18.0,93,0.00,,---,0.31,VWS V14.01,2013-07-02 00:27:00,
2013-07-01 20:32:00,77.0,74.8,30.02,SSW,210,15.0,17.0,93,0.00,,---,0.31,VWS V14.01,2013-07-02 00:32:00,
2013-07-01 20:37:00,76.9,74.7,30.02,SSW,207,17.0,17.0,93,0.00,,---,0.31,VWS V14.01,2013-07-02 00:37:00,
2013-07-01 20:42:00,77.0,74.8,30.02,SSW,209,15.0,18.0,93,0.00,,---,0.31,VWS V14.01,2013-07-02 00:42:00,
2013-07-01 20:47:00,76.9,74.7,30.02,SSW,207,16.0,17.0,93,0.00,,---,0.31,VWS V14.01,2013-07-02 00:47:00,
2013-07-01 20:52:00,76.9,74.7,30.02,SSW,196,14.0,19.0,93,0.00,,---,0.31,VWS V14.01,2013-07-02 00:52:00,
2013-07-01 20:57:00,76.8,74.6,30.02,SSW,208,14.0,19.0,93,0.00,,---,0.31,VWS V14.01,2013-07-02 00:57:00,
2013-07-01 21:02:00,76.8,74.6,30.02,SSW,211,16.0,18.0,93,0.00,,---,0.31,VWS V14.01,2013-07-02 01:02:00,
2013-07-01 21:07:00,76.8,74.6,30.02,SSW,210,14.0,18.0,93,0.00,,---,0.31,VWS V14.01,2013-07-02 01:07:00,
2013-07-01 21:12:00,77.0,74.8,30.02,SSW,204,14.0,15.0,93,0.00,,---,0.31,VWS V14.01,2013-07-02 01:12:00,
2013-07-01 21:17:00,76.7,74.5,30.02,SSW,211,13.0,17.0,93,0.00,,---,0.31,VWS V14.01,2013-07-02 01:17:00,
2013-07-01 21:22:00,76.8,74.3,30.03,SSW,208,14.0,17.0,92,0.00,,---,0.31,VWS V14.01,2013-07-02 01:22:00,
2013-07-01 21:27:00,76.9,74.4,30.03,SSW,209,14.0,16.0,92,0.00,,---,0.31,VWS V14.01,2013-07-02 01:27:00,
2013-07-01 21:32:00,76.9,74.4,30.03,SSW,212,14.0,16.0,92,0.00,,---,0.31,VWS V14.01,2013-07-02 01:32:00,
2013-07-01 21:37:00,77.0,74.5,30.04,SW,215,16.0,16.0,92,0.00,,---,0.31,VWS V14.01,2013-07-02 01:37:00,
2013-07-01 21:42:00,77.1,74.6,30.04,SW,217,18.0,18.0,92,0.00,,---,0.31,VWS V14.01,2013-07-02 01:42:00,
2013-07-01 21:47:00,77.1,74.6,30.04,SSW,209,17.0,18.0,92,0.00,,---,0.31,VWS V14.01,2013-07-02 01:47:00,
2013-07-01 21:52:00,77.1,74.6,30.04,SW,215,14.0,18.0,92,0.00,,---,0.31,VWS V14.01,2013-07-02 01:52:00,
2013-07-01 21:57:00,77.2,74.7,30.05,SSW,209,14.0,16.0,92,0.00,,---,0.31,VWS V14.01,2013-07-02 01:57:00,
2013-07-01 22:02:00,77.2,74.7,30.05,SSW,213,16.0,19.0,92,0.00,,---,0.31,VWS V14.01,2013-07-02 02:02:00,
2013-07-01 22:07:00,77.3,74.8,30.05,SSW,211,20.0,20.0,92,0.00,,---,0.31,VWS V14.01,2013-07-02 02:07:00,
2013-07-01 22:11:00,77.3,74.8,30.05,SW,215,18.0,18.0,92,0.00,,---,0.31,VWS V14.01,2013-07-02 02:11:00,
2013-07-01 22:17:00,77.3,74.8,30.05,SSW,209,17.0,18.0,92,0.00,,---,0.31,VWS V14.01,2013-07-02 02:17:00,
2013-07-01 22:22:00,77.3,75.1,30.05,SSW,208,17.0,19.0,93,0.00,,---,0.31,VWS V14.01,2013-07-02 02:22:00,
2013-07-01 22:27:00,77.3,74.8,30.05,SSW,203,17.0,18.0,92,0.00,,---,0.31,VWS V14.01,2013-07-02 02:27:00,
2013-07-01 22:31:00,77.4,75.2,30.06,SSW,209,15.0,18.0,93,0.00,,---,0.31,VWS V14.01,2013-07-02 02:31:00,
2013-07-01 22:37:00,77.4,75.2,30.06,SSW,213,18.0,20.0,93,0.00,,---,0.31,VWS V14.01,2013-07-02 02:37:00,
2013-07-01 22:41:00,77.4,74.9,30.05,SW,217,17.0,18.0,92,0.00,,---,0.31,VWS V14.01,2013-07-02 02:41:00,
2013-07-01 22:46:00,77.2,74.7,30.05,SSW,207,15.0,19.0,92,0.00,,---,0.31,VWS V14.01,2013-07-02 02:46:00,
2013-07-01 22:51:00,77.2,74.4,30.05,SSW,210,18.0,18.0,91,0.00,,---,0.31,VWS V14.01,2013-07-02 02:51:00,
2013-07-01 22:56:00,77.4,74.6,30.06,SSW,209,16.0,17.0,91,0.00,,---,0.31,VWS V14.01,2013-07-02 02:56:00,
2013-07-01 23:01:00,77.5,74.3,30.05,SSW,207,14.0,16.0,90,0.00,,---,0.31,VWS V14.01,2013-07-02 03:01:00,
2013-07-01 23:06:00,77.5,74.3,30.05,SSW,200,17.0,17.0,90,0.00,,---,0.31,VWS V14.01,2013-07-02 03:06:00,
2013-07-01 23:11:00,77.6,74.4,30.05,SSW,211,15.0,17.0,90,0.00,,---,0.31,VWS V14.01,2013-07-02 03:11:00,
2013-07-01 23:16:00,77.6,74.4,30.05,SSW,207,16.0,17.0,90,0.00,,---,0.31,VWS V14.01,2013-07-02 03:16:00,
2013-07-01 23:21:00,77.6,74.4,30.05,SSW,211,19.0,19.0,90,0.00,,---,0.31,VWS V14.01,2013-07-02 03:21:00,
2013-07-01 23:26:00,77.7,74.5,30.06,SSW,202,17.0,17.0,90,0.00,,---,0.31,VWS V14.01,2013-07-02 03:26:00,
2013-07-01 23:31:00,77.7,74.2,30.06,SSW,207,14.0,18.0,89,0.00,,---,0.31,VWS V14.01,2013-07-02 03:31:00,
2013-07-01 23:36:00,77.8,74.6,30.06,SSW,206,18.0,18.0,90,0.00,,---,0.31,VWS V14.01,2013-07-02 03:36:00,
2013-07-01 23:41:00,77.8,74.3,30.06,SSW,204,16.0,18.0,89,0.00,,---,0.31,VWS V14.01,2013-07-02 03:41:00,
2013-07-01 23:46:00,77.8,74.3,30.06,SSW,212,18.0,18.0,89,0.00,,---,0.31,VWS V14.01,2013-07-02 03:46:00,
2013-07-01 23:51:00,77.8,74.6,30.06,SSW,202,16.0,17.0,90,0.00,,---,0.31,VWS V14.01,2013-07-02 03:51:00,
2013-07-01 23:56:00,77.7,74.5,30.06,SSW,207,16.0,18.0,90,0.00,,---,0.31,VWS V14.01,2013-07-02 03:56:00,